Location: Palomar Mountain Lodge
(33.3110°N, 116.8495°W)
Time: 03:29:35
(UTC-07:00)

SL-08 R/B - Pass Details

Date: 19 May 2017
Orbit: 947 x 994 km, 83.0° (Epoch: 23 June)

Event Time Altitude Azimuth Distance (km) Brightness Sun altitude
Rises 20:09:48 0° 354° (N) 3,618 8.0 -5.7°
Reaches altitude 10° 20:12:17 10° 355° (N) 2,671 7.3 -6.2°
Maximum altitude 20:18:24 87° 84° (E) 955 4.5 -7.3°
Drops below altitude 10° 20:24:31 10° 175° (S) 2,677 6.5 -8.4°
Sets 20:27:01 0° 175° (S) 3,625 7.1 -8.8°
